Location: Zagreb
(45.8000°N, 16.0000°E)
Time: 09:15:14
(UTC+02:00)

Courier 1B Rocket - Pass Details

Date: 09 August 2022
Orbit: 920 x 1202 km, 28.2° (Epoch: 25 September)

Event Time Altitude Azimuth Distance (km) Brightness Sun altitude
Rises 18:34:02 0° 222° (SW) 3,581 8.5 15.9°
Reaches altitude 10° 18:37:59 10° 198° (SSW) 2,677 7.5 15.2°
Maximum altitude 18:41:11 14° 168° (SSE) 2,423 7.0 14.7°
Drops below altitude 10° 18:44:27 10° 138° (SE) 2,763 7.0 14.1°
Sets 18:48:39 0° 115° (ESE) 3,780 7.5 13.4°
